GEFSMA_prec_meanprecacc_294.txt.gz
Total_Precipitation_Accumulation
0.97 0.87 0.83 0.84 0.75 0.71 0.69 0.68 0.67 0.64 0.59 0.56 0.52 0.46 0.45 0.47 0.41 0.35 0.30 0.29 0.28 0.34 0.48 0.70 1.01 1.34 1.59 1.70 1.68 1.50 1.39 1.24 1.07 0.99 0.95 1.02 1.03 1.01 1.08 1.24 1.24 1.16 1.14
0.95 0.88 0.80 0.78 0.71 0.61 0.57 0.55 0.53 0.55 0.56 0.52 0.47 0.41 0.39 0.42 0.42 0.38 0.37 0.38 0.33 0.33 0.40 0.55 0.78 1.10 1.47 1.74 1.81 1.74 1.58 1.47 1.29 1.13 1.05 1.05 1.10 1.08 1.08 1.16 1.26 1.25 1.20
1.02 0.96 0.88 0.80 0.76 0.71 0.66 0.62 0.58 0.56 0.53 0.51 0.49 0.43 0.38 0.36 0.39 0.40 0.41 0.42 0.42 0.40 0.40 0.51 0.67 0.90 1.31 1.70 1.91 2.00 1.85 1.66 1.53 1.37 1.16 1.06 1.08 1.13 1.13 1.17 1.27 1.35 1.35
1.16 1.05 0.96 0.90 0.88 0.87 0.83 0.77 0.67 0.62 0.56 0.51 0.49 0.46 0.41 0.37 0.35 0.36 0.41 0.42 0.41 0.41 0.41 0.45 0.61 0.83 1.12 1.48 1.84 2.11 2.18 1.98 1.85 1.75 1.53 1.29 1.13 1.15 1.20 1.22 1.29 1.39 1.50
1.42 1.20 1.07 1.03 1.04 1.05 0.99 0.89 0.79 0.68 0.61 0.56 0.53 0.51 0.44 0.41 0.38 0.37 0.39 0.43 0.45 0.43 0.43 0.44 0.51 0.66 0.88 1.22 1.70 2.14 2.48 2.48 2.29 2.16 1.95 1.72 1.45 1.28 1.30 1.31 1.35 1.45 1.58
1.61 1.46 1.28 1.18 1.17 1.17 1.12 1.00 0.88 0.79 0.71 0.66 0.66 0.63 0.52 0.45 0.42 0.40 0.38 0.40 0.43 0.44 0.45 0.48 0.52 0.54 0.62 0.78 1.15 1.70 2.20 2.55 2.59 2.50 2.37 2.15 1.92 1.69 1.56 1.50 1.48 1.56 1.70
1.62 1.62 1.44 1.31 1.19 1.14 1.09 1.01 0.94 0.91 0.84 0.80 0.84 0.82 0.69 0.57 0.51 0.47 0.44 0.44 0.45 0.48 0.56 0.62 0.67 0.64 0.61 0.62 0.68 0.95 1.50 2.13 2.53 2.69 2.69 2.64 2.42 2.15 1.92 1.76 1.70 1.75 1.83
1.62 1.71 1.63 1.51 1.39 1.26 1.24 1.22 1.14 1.06 1.00 0.91 0.92 0.99 0.91 0.82 0.66 0.52 0.49 0.48 0.52 0.57 0.68 0.73 0.78 0.79 0.75 0.66 0.54 0.61 0.84 1.39 2.07 2.63 2.79 2.80 2.85 2.68 2.33 2.07 1.95 1.99 2.06
1.57 1.67 1.74 1.69 1.62 1.50 1.36 1.28 1.23 1.17 1.14 1.03 0.94 1.15 1.18 0.91 0.66 0.53 0.47 0.44 0.46 0.48 0.51 0.58 0.63 0.68 0.77 0.81 0.68 0.60 0.64 0.91 1.45 2.22 2.79 2.90 2.98 3.12 2.90 2.46 2.19 2.12 2.18
1.60 1.60 1.66 1.69 1.66 1.59 1.44 1.27 1.17 1.11 1.16 1.18 1.01 0.91 0.92 0.88 0.86 0.66 0.50 0.43 0.42 0.43 0.42 0.43 0.46 0.51 0.63 0.78 0.84 0.78 0.75 0.80 1.10 1.64 2.37 2.97 3.17 3.36 3.48 3.11 2.63 2.36 2.26
1.66 1.59 1.57 1.60 1.64 1.61 1.55 1.42 1.28 1.22 1.19 1.20 1.13 0.97 0.85 0.76 0.76 0.83 0.65 0.50 0.47 0.47 0.45 0.43 0.44 0.45 0.49 0.60 0.75 0.81 0.87 0.88 1.03 1.34 1.78 2.53 3.26 3.59 3.79 3.65 3.12 2.63 2.37
1.72 1.65 1.55 1.55 1.58 1.60 1.59 1.56 1.47 1.37 1.30 1.20 1.13 1.06 1.06 1.03 0.87 0.85 0.79 0.59 0.53 0.50 0.50 0.50 0.51 0.50 0.49 0.52 0.64 0.77 0.84 0.91 0.99 1.14 1.32 1.77 2.65 3.44 3.76 3.73 3.41 2.99 2.59
1.83 1.68 1.57 1.50 1.50 1.47 1.44 1.46 1.52 1.52 1.42 1.36 1.29 1.18 1.08 1.03 0.93 0.92 0.98 0.85 0.69 0.58 0.58 0.58 0.58 0.57 0.55 0.54 0.62 0.68 0.71 0.84 0.98 1.05 1.09 1.19 1.64 2.58 3.48 3.84 3.64 3.29 2.98
1.78 1.67 1.59 1.48 1.41 1.41 1.39 1.37 1.39 1.44 1.42 1.37 1.30 1.23 1.17 1.06 1.02 1.03 1.09 1.15 1.05 0.79 0.70 0.66 0.61 0.58 0.58 0.61 0.66 0.72 0.64 0.77 0.90 0.98 1.10 1.14 1.27 1.65 2.47 3.48 4.09 3.80 3.32
1.84 1.75 1.64 1.58 1.50 1.45 1.41 1.38 1.36 1.32 1.32 1.33 1.30 1.23 1.22 1.13 1.10 1.10 1.10 1.20 1.40 1.22 0.80 0.61 0.59 0.60 0.60 0.66 0.76 0.73 0.66 0.75 0.89 0.91 1.01 1.10 1.18 1.25 1.56 2.25 3.27 4.04 3.98
1.96 1.98 1.88 1.76 1.65 1.61 1.54 1.47 1.39 1.28 1.28 1.28 1.31 1.31 1.27 1.20 1.16 1.15 1.14 1.11 1.16 1.27 1.05 0.65 0.60 0.64 0.69 0.70 0.80 0.77 0.75 0.85 0.90 0.87 0.93 0.99 1.07 1.18 1.30 1.57 2.19 3.21 3.89
2.02 2.07 2.10 2.01 1.89 1.77 1.70 1.64 1.54 1.45 1.39 1.30 1.28 1.30 1.28 1.21 1.21 1.18 1.16 1.07 1.00 1.09 1.13 0.72 0.60 0.64 0.73 0.78 0.82 0.81 0.80 0.82 0.81 0.82 0.88 0.95 1.01 1.09 1.22 1.39 1.67 2.31 3.25
2.06 2.05 2.18 2.19 2.10 1.98 1.86 1.82 1.77 1.67 1.61 1.52 1.40 1.34 1.31 1.31 1.34 1.29 1.23 1.13 1.01 0.97 1.07 0.93 0.67 0.66 0.74 0.82 0.89 0.90 0.89 0.87 0.82 0.90 0.93 0.95 0.99 1.02 1.14 1.31 1.50 1.81 2.44
1.96 2.02 2.17 2.29 2.21 2.15 2.03 1.87 1.86 1.92 1.87 1.78 1.69 1.65 1.56 1.50 1.53 1.48 1.38 1.23 1.08 0.99 0.99 1.01 0.81 0.72 0.78 0.87 1.01 1.03 1.01 0.97 0.89 0.97 1.00 1.01 1.03 1.02 1.08 1.21 1.38 1.58 1.87
1.75 1.93 2.09 2.25 2.29 2.33 2.40 2.27 2.13 2.00 1.97 1.96 1.91 1.85 1.84 1.78 1.72 1.66 1.63 1.42 1.20 1.13 1.07 1.10 0.99 0.86 0.85 0.93 1.17 1.26 1.23 1.14 1.06 0.97 1.02 1.03 1.07 1.08 1.07 1.08 1.16 1.31 1.57
1.63 1.75 1.87 2.02 2.11 2.34 2.83 2.92 2.48 1.95 1.77 1.77 1.72 1.66 1.72 1.86 1.91 1.90 1.88 1.70 1.52 1.47 1.38 1.35 1.23 1.08 1.00 1.09 1.28 1.33 1.40 1.34 1.33 1.17 1.03 0.96 0.95 0.96 0.98 1.05 1.13 1.22 1.39
1.59 1.68 1.72 1.73 1.81 2.07 2.71 2.82 2.27 1.79 1.58 1.56 1.55 1.48 1.47 1.60 1.65 1.71 1.82 1.82 1.82 1.87 1.82 1.68 1.49 1.32 1.12 1.06 1.18 1.46 1.59 1.68 1.70 1.39 1.20 1.12 0.99 1.00 1.00 1.01 1.09 1.13 1.28
1.52 1.54 1.56 1.53 1.54 1.78 2.30 2.35 2.05 1.68 1.49 1.35 1.32 1.31 1.30 1.32 1.42 1.32 1.44 1.56 1.65 1.81 1.93 1.89 1.81 1.49 1.24 1.15 1.32 1.58 1.68 1.76 1.67 1.49 1.48 1.56 1.30 1.17 1.10 1.11 1.17 1.13 1.23
1.46 1.40 1.38 1.36 1.37 1.53 2.04 2.19 2.01 1.64 1.51 1.39 1.31 1.20 1.14 1.14 1.29 1.35 1.37 1.37 1.31 1.42 1.66 1.80 1.89 1.68 1.45 1.41 1.63 1.87 2.01 2.03 1.86 1.73 1.70 1.85 1.55 1.36 1.27 1.22 1.22 1.14 1.16
1.31 1.27 1.23 1.27 1.24 1.35 1.84 2.21 2.09 1.67 1.64 1.53 1.41 1.33 1.22 1.09 1.35 1.47 1.35 1.27 1.16 1.20 1.37 1.63 1.79 1.81 1.80 1.85 2.00 2.25 2.39 2.44 2.31 1.98 1.83 1.92 1.77 1.55 1.49 1.49 1.40 1.28 1.15
1.15 1.14 1.09 1.11 1.10 1.19 1.58 2.09 2.18 1.68 1.60 1.50 1.42 1.38 1.47 1.39 1.46 1.41 1.23 1.25 1.27 1.14 1.10 1.19 1.27 1.36 1.37 1.42 1.71 1.94 2.14 2.35 2.33 2.30 1.95 1.93 1.96 1.90 2.07 1.74 1.46 1.23 1.11

GEFSMA_prec_meanprecacc_300.txt.gz
Total_Precipitation_Accumulation
1.03 0.90 0.85 0.86 0.79 0.75 0.72 0.71 0.70 0.67 0.61 0.57 0.53 0.47 0.46 0.47 0.42 0.35 0.30 0.30 0.29 0.35 0.50 0.72 1.04 1.37 1.62 1.72 1.71 1.52 1.41 1.26 1.11 1.03 0.99 1.07 1.09 1.07 1.14 1.28 1.27 1.20 1.19
1.05 0.95 0.83 0.80 0.74 0.65 0.61 0.59 0.57 0.59 0.58 0.53 0.48 0.41 0.40 0.43 0.43 0.39 0.37 0.38 0.34 0.34 0.41 0.57 0.81 1.13 1.50 1.77 1.84 1.76 1.60 1.49 1.31 1.15 1.08 1.07 1.12 1.10 1.11 1.19 1.29 1.29 1.25
1.13 1.08 0.97 0.84 0.79 0.73 0.70 0.67 0.63 0.60 0.57 0.52 0.50 0.44 0.38 0.37 0.39 0.40 0.41 0.42 0.42 0.41 0.41 0.52 0.68 0.93 1.34 1.73 1.94 2.04 1.89 1.70 1.56 1.39 1.19 1.07 1.09 1.14 1.14 1.19 1.29 1.38 1.39
1.24 1.15 1.08 0.99 0.92 0.90 0.86 0.81 0.71 0.65 0.60 0.53 0.50 0.47 0.42 0.38 0.36 0.37 0.42 0.43 0.42 0.42 0.42 0.46 0.62 0.85 1.15 1.51 1.88 2.15 2.22 2.03 1.89 1.78 1.56 1.32 1.15 1.16 1.20 1.23 1.30 1.41 1.52
1.48 1.28 1.17 1.14 1.14 1.11 1.03 0.93 0.83 0.71 0.65 0.59 0.55 0.52 0.45 0.41 0.39 0.38 0.39 0.43 0.45 0.44 0.44 0.46 0.53 0.67 0.90 1.25 1.74 2.18 2.52 2.52 2.34 2.21 2.00 1.75 1.47 1.29 1.31 1.32 1.36 1.46 1.59
1.68 1.53 1.37 1.29 1.28 1.27 1.18 1.05 0.93 0.83 0.75 0.71 0.69 0.64 0.53 0.46 0.42 0.40 0.38 0.41 0.44 0.44 0.45 0.49 0.53 0.55 0.63 0.80 1.17 1.73 2.24 2.59 2.63 2.54 2.42 2.19 1.95 1.71 1.57 1.52 1.49 1.58 1.71
1.68 1.68 1.51 1.42 1.31 1.24 1.18 1.09 1.00 0.97 0.89 0.85 0.89 0.84 0.71 0.58 0.51 0.47 0.44 0.45 0.46 0.49 0.57 0.63 0.68 0.65 0.62 0.64 0.71 0.98 1.53 2.18 2.58 2.74 2.74 2.69 2.46 2.19 1.95 1.78 1.72 1.76 1.85
1.66 1.75 1.67 1.58 1.51 1.40 1.34 1.31 1.21 1.12 1.05 0.95 0.97 1.03 0.95 0.84 0.68 0.53 0.50 0.48 0.52 0.58 0.69 0.74 0.79 0.80 0.76 0.68 0.55 0.63 0.87 1.43 2.13 2.68 2.84 2.84 2.90 2.72 2.37 2.10 1.97 2.01 2.08
1.60 1.70 1.77 1.73 1.69 1.63 1.52 1.40 1.32 1.24 1.20 1.08 0.98 1.19 1.21 0.94 0.67 0.54 0.48 0.45 0.46 0.48 0.52 0.59 0.64 0.70 0.79 0.83 0.70 0.62 0.67 0.94 1.49 2.29 2.85 2.95 3.03 3.16 2.95 2.50 2.22 2.15 2.20
1.63 1.63 1.69 1.72 1.70 1.66 1.58 1.45 1.32 1.23 1.25 1.25 1.08 0.97 0.95 0.90 0.89 0.68 0.51 0.44 0.43 0.44 0.43 0.44 0.47 0.53 0.65 0.80 0.87 0.81 0.77 0.82 1.12 1.69 2.42 3.02 3.21 3.40 3.52 3.15 2.67 2.40 2.30
1.69 1.62 1.61 1.65 1.69 1.67 1.64 1.55 1.45 1.39 1.33 1.29 1.21 1.04 0.90 0.79 0.79 0.87 0.69 0.52 0.48 0.48 0.46 0.45 0.46 0.47 0.51 0.62 0.77 0.83 0.90 0.90 1.06 1.38 1.82 2.57 3.30 3.62 3.82 3.69 3.17 2.67 2.42
1.76 1.69 1.59 1.59 1.64 1.67 1.66 1.66 1.61 1.54 1.45 1.33 1.22 1.14 1.13 1.09 0.92 0.89 0.83 0.62 0.55 0.52 0.52 0.53 0.53 0.52 0.52 0.54 0.66 0.80 0.86 0.93 1.01 1.17 1.36 1.81 2.70 3.49 3.79 3.77 3.47 3.04 2.64
1.87 1.72 1.61 1.54 1.55 1.54 1.53 1.55 1.65 1.67 1.59 1.51 1.42 1.29 1.18 1.13 1.02 1.00 1.04 0.88 0.71 0.60 0.61 0.61 0.61 0.61 0.58 0.58 0.66 0.72 0.74 0.87 1.00 1.08 1.12 1.22 1.67 2.62 3.52 3.89 3.71 3.34 3.04
1.83 1.72 1.63 1.53 1.46 1.47 1.48 1.47 1.52 1.57 1.58 1.53 1.45 1.38 1.31 1.20 1.14 1.13 1.17 1.22 1.10 0.83 0.74 0.70 0.64 0.62 0.63 0.65 0.71 0.76 0.67 0.80 0.94 1.01 1.13 1.16 1.29 1.67 2.51 3.55 4.17 3.86 3.39
1.89 1.80 1.70 1.64 1.56 1.52 1.50 1.47 1.46 1.44 1.45 1.48 1.45 1.38 1.36 1.25 1.23 1.22 1.20 1.30 1.49 1.30 0.86 0.67 0.65 0.66 0.64 0.69 0.79 0.76 0.68 0.78 0.92 0.95 1.04 1.13 1.21 1.30 1.62 2.34 3.37 4.12 4.05
2.00 2.03 1.94 1.82 1.71 1.67 1.62 1.55 1.48 1.38 1.39 1.42 1.45 1.46 1.41 1.32 1.26 1.26 1.26 1.22 1.26 1.37 1.14 0.72 0.67 0.70 0.73 0.74 0.83 0.79 0.76 0.88 0.94 0.91 0.97 1.04 1.13 1.25 1.38 1.67 2.30 3.31 3.97
2.06 2.11 2.13 2.06 1.93 1.82 1.76 1.72 1.64 1.55 1.51 1.42 1.39 1.41 1.39 1.32 1.31 1.28 1.26 1.18 1.10 1.18 1.22 0.79 0.65 0.69 0.78 0.82 0.86 0.85 0.85 0.87 0.88 0.88 0.94 1.03 1.10 1.19 1.32 1.51 1.80 2.42 3.31
2.09 2.08 2.22 2.22 2.14 2.02 1.92 1.90 1.87 1.76 1.71 1.62 1.50 1.43 1.40 1.40 1.43 1.38 1.33 1.23 1.11 1.06 1.15 1.00 0.71 0.70 0.78 0.88 0.94 0.97 0.98 0.96 0.92 0.99 1.01 1.04 1.10 1.14 1.26 1.43 1.64 1.93 2.51
1.99 2.07 2.21 2.33 2.24 2.18 2.08 1.93 1.93 2.00 1.95 1.86 1.77 1.73 1.63 1.58 1.61 1.57 1.47 1.32 1.17 1.08 1.07 1.08 0.87 0.76 0.82 0.92 1.06 1.09 1.08 1.06 0.99 1.06 1.09 1.11 1.13 1.11 1.17 1.30 1.49 1.68 1.93
1.78 1.98 2.14 2.30 2.33 2.37 2.44 2.31 2.18 2.05 2.03 2.02 1.97 1.91 1.91 1.85 1.79 1.73 1.70 1.50 1.29 1.21 1.16 1.19 1.07 0.92 0.90 0.97 1.22 1.33 1.30 1.22 1.14 1.05 1.10 1.12 1.16 1.14 1.13 1.15 1.23 1.39 1.62
1.68 1.80 1.92 2.07 2.16 2.38 2.88 2.96 2.52 2.00 1.82 1.82 1.77 1.71 1.77 1.91 1.97 1.96 1.95 1.77 1.59 1.54 1.45 1.42 1.30 1.15 1.06 1.15 1.36 1.43 1.48 1.41 1.40 1.24 1.10 1.03 1.01 1.01 1.03 1.10 1.18 1.27 1.44
1.65 1.74 1.77 1.78 1.86 2.12 2.76 2.88 2.33 1.84 1.62 1.60 1.60 1.52 1.51 1.64 1.70 1.75 1.87 1.88 1.89 1.93 1.88 1.74 1.56 1.39 1.19 1.14 1.27 1.55 1.66 1.75 1.79 1.46 1.26 1.17 1.03 1.04 1.04 1.05 1.14 1.17 1.32
1.57 1.60 1.62 1.60 1.60 1.85 2.37 2.42 2.11 1.72 1.52 1.39 1.36 1.34 1.33 1.35 1.45 1.35 1.48 1.61 1.69 1.86 1.98 1.94 1.87 1.55 1.32 1.24 1.42 1.66 1.74 1.82 1.76 1.56 1.53 1.60 1.34 1.21 1.14 1.15 1.21 1.17 1.27
1.53 1.48 1.47 1.44 1.44 1.60 2.11 2.26 2.07 1.67 1.54 1.42 1.34 1.23 1.17 1.17 1.31 1.37 1.41 1.40 1.34 1.44 1.69 1.83 1.92 1.72 1.50 1.47 1.70 1.94 2.06 2.08 1.91 1.79 1.74 1.89 1.59 1.39 1.30 1.25 1.25 1.17 1.20
1.40 1.36 1.33 1.36 1.31 1.41 1.92 2.29 2.16 1.71 1.67 1.56 1.44 1.36 1.25 1.11 1.37 1.50 1.39 1.31 1.18 1.23 1.39 1.65 1.82 1.84 1.84 1.89 2.04 2.28 2.43 2.49 2.36 2.02 1.86 1.95 1.80 1.58 1.53 1.52 1.43 1.31 1.18
1.23 1.23 1.18 1.19 1.17 1.25 1.66 2.16 2.24 1.72 1.63 1.53 1.44 1.41 1.51 1.41 1.49 1.44 1.27 1.29 1.30 1.17 1.13 1.21 1.30 1.39 1.40 1.45 1.74 1.96 2.16 2.39 2.36 2.33 1.97 1.95 1.98 1.93 2.10 1.77 1.48 1.25 1.13

GEFSMA_prec_meanprecacc_306.txt.gz
Total_Precipitation_Accumulation
1.09 0.96 0.91 0.93 0.85 0.80 0.76 0.75 0.75 0.71 0.63 0.59 0.54 0.48 0.46 0.48 0.43 0.36 0.31 0.31 0.31 0.36 0.51 0.75 1.07 1.41 1.66 1.75 1.74 1.56 1.46 1.31 1.15 1.07 1.02 1.09 1.11 1.08 1.15 1.30 1.30 1.22 1.22
1.10 1.01 0.90 0.87 0.80 0.71 0.65 0.63 0.61 0.63 0.61 0.55 0.50 0.43 0.40 0.43 0.43 0.40 0.39 0.40 0.35 0.34 0.42 0.60 0.84 1.15 1.53 1.80 1.88 1.80 1.65 1.54 1.38 1.22 1.14 1.12 1.15 1.13 1.13 1.21 1.31 1.30 1.26
1.17 1.12 1.02 0.90 0.85 0.78 0.74 0.71 0.67 0.64 0.60 0.54 0.51 0.45 0.39 0.37 0.40 0.41 0.43 0.43 0.43 0.42 0.43 0.54 0.71 0.95 1.37 1.77 1.98 2.07 1.93 1.74 1.61 1.44 1.24 1.13 1.14 1.18 1.16 1.21 1.31 1.40 1.40
1.27 1.18 1.12 1.03 0.98 0.96 0.91 0.85 0.76 0.71 0.64 0.55 0.51 0.48 0.43 0.38 0.36 0.38 0.43 0.44 0.43 0.44 0.44 0.48 0.64 0.87 1.17 1.54 1.91 2.19 2.26 2.06 1.93 1.82 1.60 1.37 1.21 1.21 1.25 1.27 1.32 1.43 1.53
1.52 1.31 1.20 1.17 1.18 1.18 1.09 0.98 0.88 0.76 0.71 0.63 0.57 0.54 0.46 0.42 0.39 0.38 0.40 0.44 0.46 0.45 0.46 0.47 0.53 0.68 0.91 1.26 1.76 2.22 2.56 2.56 2.38 2.25 2.04 1.81 1.54 1.36 1.37 1.37 1.39 1.48 1.60
1.71 1.57 1.40 1.33 1.31 1.32 1.26 1.12 0.99 0.88 0.81 0.77 0.74 0.67 0.55 0.47 0.43 0.41 0.39 0.42 0.45 0.45 0.46 0.50 0.54 0.56 0.64 0.81 1.19 1.76 2.28 2.64 2.68 2.59 2.46 2.24 2.01 1.78 1.65 1.59 1.54 1.61 1.72
1.72 1.71 1.54 1.46 1.34 1.28 1.23 1.15 1.08 1.04 0.96 0.93 0.98 0.91 0.75 0.60 0.53 0.48 0.45 0.46 0.47 0.50 0.58 0.63 0.68 0.66 0.63 0.65 0.72 1.00 1.56 2.22 2.63 2.79 2.80 2.75 2.52 2.25 2.03 1.87 1.80 1.82 1.89
1.71 1.79 1.69 1.60 1.54 1.43 1.39 1.36 1.28 1.20 1.12 1.02 1.05 1.11 1.02 0.89 0.70 0.54 0.51 0.49 0.53 0.59 0.70 0.74 0.79 0.81 0.77 0.68 0.56 0.65 0.90 1.46 2.17 2.73 2.90 2.90 2.95 2.78 2.43 2.18 2.06 2.09 2.15
1.64 1.74 1.80 1.76 1.71 1.66 1.57 1.45 1.38 1.31 1.28 1.15 1.04 1.26 1.28 0.99 0.70 0.55 0.49 0.46 0.48 0.51 0.54 0.60 0.65 0.71 0.80 0.84 0.71 0.63 0.68 0.96 1.52 2.33 2.90 3.01 3.09 3.23 3.02 2.58 2.31 2.24 2.29
1.68 1.69 1.74 1.75 1.73 1.69 1.61 1.49 1.39 1.30 1.32 1.33 1.14 1.02 1.00 0.93 0.92 0.71 0.52 0.46 0.46 0.47 0.46 0.46 0.48 0.54 0.66 0.81 0.87 0.82 0.78 0.84 1.15 1.72 2.46 3.08 3.27 3.47 3.61 3.24 2.75 2.48 2.39
1.73 1.67 1.67 1.70 1.72 1.70 1.66 1.59 1.50 1.47 1.42 1.38 1.29 1.11 0.97 0.85 0.83 0.90 0.71 0.54 0.50 0.50 0.48 0.47 0.47 0.48 0.52 0.63 0.78 0.84 0.91 0.91 1.08 1.41 1.86 2.62 3.36 3.69 3.90 3.78 3.25 2.76 2.49
1.78 1.71 1.62 1.64 1.70 1.71 1.69 1.69 1.65 1.62 1.56 1.45 1.32 1.23 1.22 1.19 1.00 0.95 0.87 0.65 0.57 0.53 0.53 0.54 0.54 0.53 0.52 0.55 0.67 0.81 0.87 0.95 1.04 1.20 1.39 1.86 2.75 3.55 3.86 3.84 3.54 3.12 2.72
1.90 1.74 1.63 1.57 1.60 1.60 1.57 1.59 1.67 1.71 1.67 1.64 1.56 1.40 1.27 1.22 1.13 1.12 1.16 0.97 0.77 0.64 0.64 0.63 0.62 0.61 0.59 0.58 0.67 0.73 0.75 0.89 1.03 1.12 1.17 1.26 1.72 2.67 3.58 3.96 3.77 3.41 3.12
1.84 1.74 1.65 1.56 1.49 1.50 1.52 1.52 1.57 1.62 1.63 1.61 1.55 1.49 1.43 1.30 1.24 1.24 1.30 1.34 1.20 0.91 0.79 0.73 0.66 0.64 0.64 0.66 0.72 0.78 0.69 0.82 0.96 1.05 1.17 1.21 1.34 1.72 2.56 3.62 4.23 3.92 3.45
1.89 1.81 1.71 1.66 1.58 1.54 1.52 1.50 1.50 1.50 1.52 1.56 1.54 1.47 1.46 1.36 1.33 1.33 1.32 1.43 1.62 1.43 0.97 0.75 0.71 0.70 0.68 0.72 0.82 0.79 0.71 0.82 0.96 0.99 1.08 1.17 1.25 1.34 1.66 2.38 3.43 4.17 4.11
2.00 2.03 1.94 1.83 1.72 1.70 1.66 1.59 1.50 1.40 1.43 1.47 1.54 1.57 1.53 1.44 1.38 1.38 1.38 1.35 1.38 1.49 1.26 0.82 0.76 0.78 0.80 0.80 0.90 0.84 0.81 0.93 0.98 0.95 1.00 1.07 1.16 1.28 1.41 1.71 2.35 3.36 4.02
2.06 2.11 2.14 2.06 1.94 1.84 1.79 1.75 1.67 1.59 1.55 1.46 1.45 1.48 1.47 1.42 1.42 1.39 1.37 1.29 1.22 1.30 1.35 0.89 0.73 0.76 0.85 0.90 0.94 0.91 0.90 0.91 0.91 0.91 0.97 1.06 1.13 1.22 1.35 1.54 1.83 2.46 3.37
2.09 2.09 2.23 2.24 2.15 2.03 1.94 1.93 1.89 1.79 1.76 1.67 1.55 1.48 1.44 1.46 1.51 1.46 1.41 1.30 1.19 1.15 1.26 1.10 0.80 0.78 0.87 0.95 1.01 1.04 1.04 1.02 0.97 1.02 1.04 1.08 1.14 1.17 1.30 1.47 1.68 1.98 2.58
1.99 2.07 2.22 2.34 2.26 2.20 2.10 1.95 1.95 2.02 1.97 1.90 1.81 1.77 1.68 1.63 1.67 1.63 1.54 1.38 1.23 1.14 1.15 1.17 0.96 0.84 0.90 0.99 1.12 1.14 1.13 1.12 1.05 1.11 1.13 1.17 1.20 1.19 1.24 1.36 1.55 1.74 2.00
1.79 2.00 2.16 2.31 2.35 2.39 2.47 2.34 2.20 2.07 2.05 2.04 1.99 1.93 1.94 1.90 1.84 1.79 1.76 1.54 1.33 1.26 1.21 1.24 1.12 0.96 0.94 1.01 1.27 1.38 1.37 1.28 1.20 1.10 1.16 1.19 1.24 1.24 1.23 1.22 1.31 1.46 1.72
1.70 1.82 1.95 2.09 2.18 2.41 2.91 2.99 2.55 2.03 1.84 1.84 1.78 1.72 1.79 1.94 2.00 2.00 1.99 1.81 1.63 1.58 1.49 1.46 1.33 1.17 1.08 1.18 1.39 1.47 1.53 1.46 1.45 1.28 1.15 1.10 1.08 1.09 1.11 1.18 1.26 1.35 1.53
1.67 1.76 1.80 1.82 1.90 2.15 2.81 2.92 2.36 1.87 1.65 1.63 1.62 1.54 1.53 1.66 1.73 1.78 1.90 1.91 1.93 1.97 1.92 1.77 1.59 1.42 1.22 1.17 1.30 1.58 1.69 1.78 1.84 1.51 1.32 1.24 1.10 1.12 1.13 1.13 1.23 1.26 1.42
1.59 1.62 1.64 1.63 1.65 1.89 2.42 2.46 2.16 1.76 1.55 1.42 1.38 1.36 1.35 1.37 1.47 1.37 1.50 1.63 1.71 1.88 2.01 1.97 1.90 1.59 1.35 1.27 1.45 1.69 1.77 1.86 1.81 1.62 1.59 1.67 1.42 1.29 1.23 1.24 1.31 1.27 1.37
1.55 1.50 1.49 1.48 1.49 1.66 2.16 2.30 2.12 1.72 1.57 1.44 1.36 1.25 1.19 1.19 1.34 1.40 1.43 1.42 1.36 1.46 1.71 1.85 1.94 1.75 1.53 1.51 1.74 1.97 2.10 2.12 1.96 1.84 1.79 1.95 1.65 1.46 1.37 1.33 1.34 1.28 1.31
1.42 1.39 1.36 1.40 1.36 1.47 1.98 2.35 2.21 1.75 1.70 1.58 1.46 1.38 1.27 1.14 1.40 1.53 1.41 1.32 1.20 1.25 1.41 1.68 1.85 1.86 1.86 1.93 2.08 2.33 2.47 2.53 2.43 2.09 1.91 2.00 1.85 1.63 1.58 1.58 1.51 1.42 1.30
1.26 1.27 1.22 1.23 1.22 1.31 1.73 2.23 2.30 1.76 1.67 1.56 1.47 1.43 1.53 1.44 1.52 1.47 1.30 1.31 1.33 1.19 1.15 1.23 1.32 1.41 1.42 1.48 1.77 2.00 2.20 2.44 2.43 2.40 2.02 1.98 2.01 1.96 2.16 1.83 1.53 1.31 1.19

GEFSMA_prec_meanprecacc_312.txt.gz
Total_Precipitation_Accumulation
1.12 0.99 0.94 0.96 0.89 0.83 0.80 0.79 0.80 0.77 0.68 0.64 0.60 0.51 0.48 0.49 0.44 0.37 0.32 0.31 0.32 0.38 0.54 0.79 1.11 1.44 1.68 1.78 1.76 1.58 1.48 1.34 1.18 1.10 1.05 1.13 1.14 1.12 1.18 1.32 1.31 1.24 1.23
1.13 1.05 0.94 0.91 0.84 0.75 0.69 0.67 0.65 0.68 0.66 0.60 0.56 0.48 0.44 0.45 0.44 0.41 0.40 0.42 0.37 0.36 0.45 0.64 0.89 1.19 1.56 1.82 1.90 1.82 1.67 1.57 1.40 1.24 1.16 1.15 1.19 1.17 1.17 1.24 1.34 1.32 1.28
1.20 1.15 1.05 0.93 0.88 0.83 0.80 0.75 0.72 0.70 0.65 0.59 0.57 0.52 0.44 0.40 0.42 0.43 0.44 0.45 0.44 0.43 0.46 0.61 0.76 0.98 1.39 1.78 2.00 2.09 1.94 1.76 1.62 1.46 1.25 1.15 1.17 1.22 1.21 1.26 1.35 1.43 1.43
1.30 1.22 1.15 1.05 1.00 1.00 0.97 0.91 0.82 0.76 0.70 0.60 0.56 0.53 0.48 0.42 0.38 0.39 0.44 0.45 0.44 0.45 0.48 0.53 0.67 0.89 1.18 1.56 1.93 2.20 2.27 2.08 1.95 1.84 1.62 1.39 1.23 1.24 1.29 1.31 1.37 1.48 1.58
1.56 1.36 1.24 1.21 1.21 1.21 1.13 1.03 0.94 0.82 0.76 0.69 0.62 0.59 0.51 0.46 0.42 0.40 0.41 0.45 0.47 0.46 0.48 0.50 0.55 0.69 0.92 1.27 1.78 2.23 2.58 2.58 2.39 2.26 2.05 1.83 1.56 1.38 1.40 1.40 1.43 1.53 1.66
1.75 1.62 1.45 1.37 1.36 1.36 1.29 1.17 1.04 0.94 0.86 0.84 0.80 0.73 0.60 0.51 0.47 0.44 0.41 0.43 0.46 0.47 0.47 0.51 0.55 0.56 0.64 0.82 1.20 1.77 2.30 2.66 2.70 2.61 2.48 2.26 2.03 1.80 1.68 1.61 1.57 1.65 1.78
1.76 1.75 1.57 1.49 1.37 1.31 1.26 1.20 1.13 1.09 1.02 1.00 1.06 1.00 0.84 0.68 0.59 0.53 0.49 0.49 0.50 0.53 0.60 0.64 0.69 0.66 0.63 0.66 0.72 1.01 1.58 2.24 2.65 2.82 2.82 2.77 2.55 2.27 2.05 1.89 1.82 1.85 1.93
1.76 1.85 1.75 1.64 1.56 1.46 1.41 1.39 1.33 1.26 1.18 1.08 1.12 1.18 1.09 0.97 0.76 0.58 0.54 0.52 0.55 0.62 0.72 0.76 0.80 0.81 0.77 0.68 0.56 0.65 0.91 1.48 2.18 2.75 2.92 2.93 2.98 2.81 2.46 2.21 2.10 2.13 2.19
1.67 1.79 1.86 1.80 1.75 1.70 1.60 1.47 1.41 1.36 1.34 1.21 1.09 1.31 1.32 1.03 0.74 0.58 0.51 0.47 0.49 0.52 0.56 0.62 0.67 0.72 0.80 0.84 0.71 0.64 0.69 0.97 1.53 2.34 2.92 3.04 3.12 3.26 3.06 2.62 2.35 2.29 2.34
1.70 1.71 1.77 1.80 1.77 1.73 1.65 1.53 1.41 1.33 1.38 1.40 1.21 1.06 1.03 0.96 0.95 0.75 0.54 0.47 0.47 0.48 0.47 0.48 0.50 0.56 0.68 0.82 0.88 0.82 0.79 0.85 1.16 1.73 2.48 3.10 3.31 3.51 3.65 3.28 2.80 2.52 2.43
1.74 1.69 1.69 1.74 1.77 1.74 1.70 1.62 1.54 1.52 1.48 1.46 1.37 1.18 1.00 0.87 0.86 0.93 0.74 0.56 0.52 0.51 0.50 0.48 0.49 0.49 0.53 0.65 0.79 0.85 0.92 0.92 1.09 1.42 1.87 2.64 3.39 3.73 3.94 3.82 3.30 2.80 2.54
1.79 1.73 1.63 1.66 1.74 1.76 1.74 1.73 1.69 1.65 1.62 1.54 1.43 1.33 1.30 1.24 1.04 0.99 0.90 0.68 0.60 0.55 0.54 0.55 0.55 0.54 0.54 0.56 0.68 0.82 0.89 0.97 1.05 1.21 1.40 1.87 2.77 3.58 3.90 3.88 3.59 3.16 2.75
1.91 1.75 1.65 1.58 1.62 1.64 1.64 1.65 1.73 1.76 1.71 1.71 1.68 1.54 1.41 1.33 1.21 1.18 1.22 1.03 0.82 0.69 0.67 0.66 0.65 0.64 0.61 0.60 0.69 0.75 0.77 0.91 1.05 1.14 1.19 1.28 1.74 2.69 3.61 4.00 3.81 3.45 3.15
1.86 1.75 1.67 1.57 1.51 1.52 1.56 1.59 1.64 1.68 1.68 1.66 1.62 1.59 1.55 1.45 1.39 1.36 1.40 1.44 1.29 0.97 0.84 0.78 0.70 0.68 0.68 0.69 0.75 0.80 0.71 0.85 0.99 1.07 1.19 1.23 1.37 1.75 2.60 3.65 4.26 3.94 3.47
1.91 1.83 1.72 1.68 1.60 1.56 1.54 1.53 1.55 1.55 1.57 1.61 1.59 1.53 1.54 1.45 1.44 1.43 1.40 1.50 1.70 1.50 1.01 0.78 0.75 0.74 0.71 0.75 0.86 0.82 0.74 0.85 0.99 1.01 1.10 1.20 1.27 1.36 1.70 2.42 3.45 4.19 4.13
2.03 2.05 1.95 1.84 1.73 1.71 1.67 1.61 1.53 1.45 1.47 1.52 1.59 1.62 1.60 1.50 1.44 1.43 1.43 1.41 1.45 1.57 1.32 0.86 0.79 0.81 0.83 0.83 0.93 0.87 0.84 0.97 1.02 0.98 1.03 1.10 1.18 1.30 1.45 1.74 2.37 3.38 4.05
2.10 2.15 2.16 2.07 1.95 1.85 1.80 1.78 1.70 1.62 1.58 1.50 1.49 1.53 1.52 1.47 1.47 1.45 1.43 1.35 1.29 1.38 1.43 0.95 0.79 0.81 0.88 0.93 0.97 0.94 0.93 0.94 0.95 0.95 1.00 1.09 1.15 1.25 1.39 1.58 1.85 2.48 3.39
2.14 2.13 2.26 2.26 2.15 2.04 1.95 1.94 1.92 1.83 1.79 1.70 1.59 1.52 1.48 1.49 1.55 1.51 1.46 1.36 1.25 1.21 1.33 1.16 0.85 0.83 0.91 0.99 1.05 1.08 1.08 1.06 1.01 1.07 1.08 1.12 1.18 1.21 1.33 1.50 1.70 2.01 2.60
2.02 2.10 2.26 2.37 2.27 2.20 2.11 1.96 1.97 2.04 2.01 1.93 1.84 1.80 1.71 1.67 1.71 1.67 1.58 1.42 1.28 1.19 1.19 1.21 1.00 0.88 0.94 1.03 1.16 1.18 1.17 1.16 1.09 1.15 1.18 1.21 1.24 1.23 1.29 1.41 1.58 1.78 2.04
1.82 2.03 2.19 2.34 2.38 2.41 2.49 2.36 2.23 2.11 2.08 2.07 2.02 1.96 1.97 1.93 1.87 1.82 1.79 1.57 1.35 1.28 1.23 1.27 1.15 0.99 0.96 1.04 1.30 1.42 1.40 1.32 1.24 1.14 1.19 1.22 1.28 1.29 1.29 1.29 1.37 1.52 1.77
1.73 1.86 1.99 2.14 2.23 2.44 2.94 3.03 2.59 2.06 1.88 1.87 1.81 1.75 1.81 1.96 2.03 2.02 2.01 1.83 1.66 1.61 1.52 1.49 1.36 1.20 1.10 1.19 1.42 1.49 1.57 1.49 1.48 1.31 1.18 1.13 1.13 1.15 1.17 1.24 1.32 1.41 1.60
1.68 1.78 1.84 1.87 1.94 2.18 2.83 2.95 2.40 1.90 1.68 1.65 1.64 1.56 1.55 1.67 1.75 1.80 1.92 1.94 1.95 2.00 1.95 1.80 1.61 1.44 1.24 1.19 1.32 1.61 1.73 1.82 1.87 1.54 1.35 1.29 1.16 1.20 1.20 1.19 1.28 1.32 1.49
1.60 1.63 1.67 1.66 1.68 1.92 2.45 2.50 2.21 1.80 1.59 1.45 1.41 1.39 1.37 1.38 1.49 1.38 1.52 1.65 1.73 1.90 2.03 1.99 1.92 1.61 1.38 1.30 1.47 1.72 1.80 1.89 1.85 1.66 1.64 1.74 1.49 1.38 1.30 1.30 1.37 1.33 1.46
1.56 1.51 1.51 1.50 1.52 1.69 2.20 2.34 2.17 1.76 1.61 1.48 1.40 1.27 1.21 1.21 1.36 1.41 1.44 1.44 1.37 1.48 1.72 1.86 1.96 1.77 1.55 1.54 1.76 2.00 2.13 2.16 2.02 1.90 1.85 2.02 1.73 1.54 1.44 1.39 1.40 1.36 1.39
1.44 1.41 1.38 1.41 1.39 1.52 2.03 2.39 2.25 1.79 1.73 1.62 1.49 1.40 1.30 1.16 1.42 1.55 1.43 1.34 1.22 1.26 1.43 1.70 1.88 1.89 1.89 1.96 2.11 2.36 2.51 2.58 2.49 2.14 1.95 2.05 1.91 1.69 1.63 1.64 1.57 1.50 1.37
1.27 1.28 1.24 1.25 1.24 1.35 1.78 2.27 2.33 1.79 1.69 1.58 1.49 1.46 1.56 1.47 1.55 1.50 1.32 1.33 1.35 1.21 1.17 1.25 1.35 1.44 1.45 1.52 1.81 2.03 2.24 2.48 2.46 2.44 2.06 2.03 2.05 2.00 2.20 1.88 1.60 1.38 1.26

GEFSMA_prec_meanprecacc_318.txt.gz
Total_Precipitation_Accumulation
1.14 1.02 0.96 0.98 0.91 0.86 0.83 0.83 0.83 0.80 0.71 0.66 0.62 0.54 0.51 0.51 0.45 0.39 0.32 0.32 0.32 0.39 0.55 0.86 1.20 1.51 1.72 1.80 1.78 1.60 1.50 1.35 1.20 1.11 1.07 1.14 1.16 1.13 1.20 1.35 1.34 1.27 1.26
1.14 1.07 0.97 0.92 0.86 0.77 0.72 0.71 0.69 0.72 0.70 0.63 0.58 0.50 0.46 0.47 0.46 0.42 0.41 0.42 0.37 0.36 0.45 0.67 0.94 1.25 1.60 1.85 1.92 1.85 1.69 1.59 1.42 1.26 1.18 1.17 1.21 1.18 1.18 1.25 1.35 1.34 1.31
1.22 1.18 1.07 0.95 0.90 0.85 0.82 0.78 0.76 0.75 0.70 0.64 0.60 0.54 0.46 0.42 0.43 0.44 0.45 0.45 0.45 0.43 0.47 0.62 0.78 1.01 1.42 1.82 2.03 2.12 1.97 1.79 1.65 1.48 1.27 1.16 1.18 1.23 1.22 1.27 1.36 1.45 1.45
1.33 1.25 1.19 1.08 1.03 1.02 0.99 0.93 0.85 0.81 0.75 0.66 0.60 0.56 0.51 0.45 0.40 0.42 0.46 0.46 0.45 0.45 0.49 0.55 0.69 0.91 1.21 1.58 1.95 2.22 2.29 2.10 1.97 1.86 1.64 1.40 1.24 1.26 1.31 1.33 1.39 1.50 1.60
1.60 1.39 1.28 1.24 1.25 1.24 1.16 1.05 0.97 0.87 0.81 0.73 0.67 0.62 0.54 0.49 0.45 0.43 0.44 0.46 0.48 0.47 0.48 0.51 0.57 0.70 0.93 1.29 1.80 2.25 2.59 2.59 2.41 2.28 2.07 1.84 1.58 1.40 1.41 1.41 1.45 1.55 1.68
1.79 1.65 1.48 1.40 1.40 1.40 1.33 1.20 1.08 0.99 0.91 0.88 0.85 0.77 0.64 0.55 0.51 0.48 0.45 0.46 0.49 0.48 0.48 0.51 0.55 0.56 0.65 0.82 1.22 1.80 2.32 2.67 2.71 2.63 2.51 2.28 2.05 1.82 1.70 1.63 1.59 1.66 1.79
1.79 1.78 1.59 1.51 1.40 1.34 1.30 1.25 1.19 1.16 1.08 1.06 1.13 1.06 0.90 0.73 0.63 0.57 0.53 0.52 0.52 0.55 0.61 0.65 0.70 0.66 0.63 0.66 0.73 1.03 1.61 2.27 2.68 2.84 2.84 2.79 2.57 2.30 2.08 1.92 1.85 1.88 1.97
1.79 1.87 1.77 1.66 1.58 1.49 1.44 1.42 1.38 1.32 1.24 1.13 1.19 1.28 1.18 1.05 0.82 0.63 0.58 0.55 0.58 0.64 0.74 0.78 0.82 0.82 0.78 0.69 0.57 0.66 0.93 1.51 2.22 2.78 2.94 2.95 3.01 2.84 2.49 2.25 2.13 2.17 2.24
1.69 1.81 1.89 1.82 1.77 1.72 1.63 1.50 1.46 1.42 1.40 1.26 1.13 1.39 1.43 1.12 0.80 0.64 0.56 0.52 0.53 0.54 0.57 0.63 0.68 0.73 0.82 0.85 0.72 0.64 0.70 1.00 1.57 2.38 2.95 3.06 3.14 3.29 3.10 2.66 2.39 2.33 2.38
1.71 1.72 1.79 1.82 1.79 1.74 1.67 1.55 1.46 1.39 1.43 1.45 1.25 1.10 1.09 1.04 1.04 0.83 0.61 0.52 0.51 0.52 0.50 0.49 0.52 0.57 0.69 0.83 0.89 0.83 0.80 0.88 1.19 1.77 2.52 3.13 3.33 3.54 3.69 3.32 2.84 2.56 2.47
1.76 1.70 1.71 1.76 1.79 1.75 1.71 1.64 1.57 1.57 1.54 1.51 1.42 1.23 1.06 0.92 0.90 1.00 0.81 0.63 0.59 0.57 0.54 0.52 0.52 0.52 0.55 0.66 0.80 0.87 0.95 0.95 1.12 1.45 1.91 2.68 3.43 3.76 3.98 3.86 3.34 2.84 2.58
1.80 1.74 1.64 1.67 1.75 1.78 1.76 1.76 1.71 1.68 1.67 1.59 1.47 1.37 1.37 1.35 1.13 1.05 0.94 0.72 0.65 0.60 0.59 0.59 0.58 0.57 0.56 0.58 0.70 0.84 0.92 0.99 1.08 1.24 1.43 1.90 2.80 3.61 3.94 3.91 3.62 3.20 2.80
1.91 1.76 1.65 1.59 1.62 1.65 1.65 1.67 1.77 1.80 1.75 1.75 1.72 1.57 1.44 1.39 1.30 1.29 1.33 1.11 0.89 0.75 0.72 0.70 0.68 0.66 0.63 0.63 0.71 0.78 0.79 0.93 1.07 1.16 1.21 1.31 1.77 2.72 3.64 4.03 3.85 3.50 3.22
1.86 1.76 1.68 1.58 1.51 1.53 1.57 1.59 1.66 1.72 1.73 1.70 1.65 1.62 1.57 1.48 1.43 1.45 1.52 1.57 1.41 1.07 0.93 0.84 0.75 0.71 0.71 0.72 0.78 0.84 0.73 0.87 1.02 1.09 1.22 1.26 1.39 1.77 2.62 3.68 4.30 4.00 3.53
1.92 1.84 1.74 1.69 1.61 1.57 1.55 1.54 1.56 1.57 1.61 1.66 1.64 1.57 1.57 1.48 1.48 1.48 1.47 1.59 1.79 1.59 1.09 0.85 0.80 0.78 0.75 0.78 0.89 0.85 0.75 0.88 1.02 1.04 1.13 1.22 1.29 1.38 1.72 2.45 3.48 4.22 4.16
2.04 2.06 1.97 1.85 1.74 1.72 1.69 1.62 1.54 1.46 1.49 1.55 1.63 1.67 1.64 1.54 1.47 1.46 1.47 1.46 1.51 1.63 1.38 0.90 0.81 0.83 0.85 0.85 0.97 0.90 0.86 1.00 1.05 1.01 1.06 1.13 1.21 1.33 1.47 1.77 2.40 3.40 4.07
2.12 2.16 2.17 2.09 1.96 1.86 1.81 1.79 1.71 1.63 1.59 1.52 1.52 1.57 1.57 1.51 1.51 1.49 1.47 1.40 1.34 1.43 1.48 0.98 0.81 0.83 0.90 0.95 0.99 0.96 0.95 0.97 0.98 0.98 1.02 1.11 1.18 1.27 1.41 1.60 1.88 2.50 3.41
2.16 2.15 2.28 2.28 2.18 2.06 1.97 1.96 1.93 1.84 1.81 1.72 1.61 1.54 1.51 1.53 1.59 1.55 1.51 1.41 1.31 1.28 1.40 1.22 0.89 0.85 0.93 1.00 1.06 1.10 1.10 1.09 1.04 1.10 1.10 1.13 1.20 1.23 1.36 1.53 1.72 2.02 2.62
2.04 2.13 2.28 2.40 2.30 2.23 2.13 1.98 1.99 2.06 2.02 1.94 1.86 1.82 1.73 1.68 1.73 1.70 1.62 1.47 1.33 1.24 1.24 1.25 1.03 0.90 0.96 1.05 1.18 1.20 1.19 1.17 1.10 1.17 1.20 1.23 1.26 1.25 1.31 1.42 1.60 1.79 2.06
1.84 2.05 2.21 2.36 2.40 2.43 2.50 2.37 2.25 2.12 2.10 2.09 2.03 1.97 1.98 1.95 1.90 1.85 1.81 1.60 1.38 1.31 1.26 1.29 1.17 1.00 0.97 1.05 1.31 1.43 1.42 1.34 1.25 1.15 1.20 1.24 1.30 1.30 1.30 1.31 1.38 1.54 1.79
1.74 1.87 2.00 2.16 2.24 2.46 2.96 3.04 2.60 2.08 1.89 1.88 1.83 1.77 1.83 1.99 2.07 2.06 2.05 1.86 1.68 1.63 1.54 1.51 1.37 1.21 1.11 1.20 1.43 1.51 1.58 1.51 1.50 1.33 1.19 1.14 1.14 1.16 1.19 1.26 1.33 1.43 1.62
1.69 1.79 1.85 1.88 1.95 2.19 2.84 2.96 2.42 1.92 1.70 1.67 1.67 1.59 1.57 1.70 1.78 1.84 1.96 1.97 1.97 2.01 1.96 1.82 1.63 1.46 1.25 1.20 1.34 1.62 1.75 1.84 1.89 1.55 1.36 1.30 1.17 1.22 1.21 1.21 1.30 1.34 1.52
1.61 1.64 1.67 1.67 1.69 1.93 2.46 2.52 2.24 1.83 1.62 1.47 1.43 1.41 1.40 1.41 1.52 1.40 1.54 1.67 1.75 1.92 2.05 2.01 1.94 1.63 1.39 1.32 1.50 1.74 1.82 1.92 1.88 1.69 1.67 1.77 1.53 1.42 1.34 1.34 1.40 1.36 1.50
1.57 1.52 1.51 1.50 1.52 1.70 2.21 2.36 2.20 1.79 1.64 1.51 1.42 1.30 1.24 1.24 1.38 1.43 1.46 1.45 1.38 1.49 1.74 1.88 1.98 1.79 1.57 1.56 1.79 2.02 2.15 2.19 2.06 1.94 1.89 2.07 1.79 1.61 1.50 1.44 1.46 1.42 1.45
1.45 1.42 1.38 1.42 1.40 1.53 2.04 2.41 2.27 1.81 1.76 1.65 1.52 1.43 1.32 1.18 1.45 1.57 1.44 1.36 1.23 1.27 1.44 1.72 1.89 1.92 1.92 1.99 2.14 2.38 2.53 2.61 2.52 2.17 1.98 2.11 1.97 1.74 1.69 1.72 1.66 1.58 1.44
1.28 1.29 1.25 1.27 1.25 1.36 1.80 2.29 2.35 1.81 1.71 1.60 1.51 1.48 1.58 1.49 1.57 1.53 1.34 1.36 1.37 1.22 1.18 1.26 1.36 1.46 1.47 1.54 1.84 2.06 2.26 2.50 2.50 2.48 2.09 2.07 2.09 2.04 2.27 1.97 1.68 1.44 1.31